sat.trackr.live / text

‹ back to catalog

HULIANWANG DIGUI-96

NORAD 66412 · 2025-258A

PAYLOAD ACTIVE UNKNOWN

§ Identity

Operator
Country
PRC
Launch date
2025-11-10
Launch site
WSC
Launch vehicle
Mass (kg)
RCS (m²)

External: N2YO · Heavens-Above · Gunter

§ Orbital elements

Epoch: 2026-05-25T01:12:19.617984Z

Period
108.33 min
Inclination
50.0063°
Eccentricity
0.0000940
Mean motion
13.29323767 rev/d
Perigee alt
1,148.6 km
Apogee alt
1,150.0 km
Semi-major
7,527.5 km
B*
7.6015e-5
RAAN
18.6174°
Arg perigee
53.1646°
Mean anomaly
306.9312°
Rev number
2,665

§ Raw data

HULIANWANG DIGUI-961 66412U 25258A   26145.05022706 -.00000089  00000+0  76015-4 0  99912 66412  50.0063  18.6174 0000940  53.1646 306.9312 13.29323767 26656

JSON: /api/v1/satellites/66412 · /tle

For live sub-satellite position, see the globe view (requires WebGL).

§ Visibility from observer

Set your observer location to see the next 7 days of passes ≥ 10°. The values pass through the URL so the page stays shareable.

No JS? Fill the form by hand. The geolocation button needs JavaScript.